Meteo orario Abertamy

Oggi, 19 Giugno, Sabato

Tempo Temperatura Precipitazioni Vento Pressione Umidità
00:00 +18°C° 0 mm 1 m/s 686 mm Hg 79%
01:00 +18°C° 0 mm 1 m/s 686 mm Hg 79%
02:00 +16°C° 0 mm 1 m/s 686 mm Hg 79%
03:00 +16°C° 0 mm 1 m/s 686 mm Hg 78%
04:00 +16°C° 0 mm 1 m/s 686 mm Hg 78%
05:00 +19°C° 0 mm 1 m/s 686 mm Hg 74%
06:00 +20°C° 0 mm 1 m/s 687 mm Hg 70%
07:00 +22°C° 0 mm 1 m/s 687 mm Hg 66%
08:00 +23°C° 0 mm 1 m/s 688 mm Hg 61%
09:00 +25°C° 0 mm 1 m/s 688 mm Hg 56%
10:00 +27°C° 0 mm 2 m/s 688 mm Hg 51%
11:00 +27°C° 0 mm 2 m/s 688 mm Hg 50%
12:00 +28°C° 0 mm 2 m/s 688 mm Hg 49%
13:00 +28°C° 0 mm 2 m/s 688 mm Hg 49%
14:00 +25°C° 2.4 mm 2 m/s 687 mm Hg 61%
15:00 +21°C° 2.4 mm 2 m/s 686 mm Hg 74%
16:00 +18°C° 2.4 mm 2 m/s 685 mm Hg 86%
17:00 +17°C° 3.2 mm 2 m/s 685 mm Hg 88%
18:00 +17°C° 3.2 mm 2 m/s 685 mm Hg 89%
19:00 +16°C° 3.2 mm 2 m/s 685 mm Hg 90%
20:00 +15°C° 0 mm 1 m/s 685 mm Hg 89%
21:00 +15°C° 0 mm 1 m/s 685 mm Hg 88%
22:00 +14°C° 0 mm 1 m/s 685 mm Hg 87%
23:00 +14°C° 0 mm 1 m/s 685 mm Hg 87%

Domani, 20 Giugno, Domenica

Tempo Temperatura Precipitazioni Vento Pressione Umidità
00:00 +14°C° 0 mm 1 m/s 685 mm Hg 87%
01:00 +13°C° 0 mm 1 m/s 685 mm Hg 87%
02:00 +13°C° 0 mm 1 m/s 684 mm Hg 87%
03:00 +13°C° 0 mm 1 m/s 684 mm Hg 87%
04:00 +13°C° 0 mm 1 m/s 683 mm Hg 86%
05:00 +15°C° 0 mm 1 m/s 684 mm Hg 82%
06:00 +18°C° 0 mm 1 m/s 684 mm Hg 78%
07:00 +19°C° 0 mm 1 m/s 684 mm Hg 73%
08:00 +21°C° 0 mm 2 m/s 684 mm Hg 67%
09:00 +24°C° 0 mm 2 m/s 685 mm Hg 61%
10:00 +26°C° 0 mm 2 m/s 685 mm Hg 56%
11:00 +27°C° 0 mm 2 m/s 685 mm Hg 52%
12:00 +28°C° 0 mm 2 m/s 685 mm Hg 49%
13:00 +29°C° 0 mm 2 m/s 684 mm Hg 46%
14:00 +29°C° 0 mm 2 m/s 684 mm Hg 47%
15:00 +28°C° 0 mm 2 m/s 684 mm Hg 49%
16:00 +28°C° 0 mm 1 m/s 683 mm Hg 51%
17:00 +26°C° 1.2 mm 2 m/s 683 mm Hg 62%
18:00 +22°C° 1.2 mm 3 m/s 683 mm Hg 74%
19:00 +20°C° 1.2 mm 4 m/s 683 mm Hg 86%
20:00 +18°C° 1.8 mm 3 m/s 683 mm Hg 89%
21:00 +16°C° 1.8 mm 2 m/s 683 mm Hg 93%
22:00 +15°C° 1.8 mm 1 m/s 683 mm Hg 96%
23:00 +15°C° 0.6 mm 1 m/s 682 mm Hg 96%

Dopodomani, 21 Giugno, Lunedi

Tempo Temperatura Precipitazioni Vento Pressione Umidità
00:00 +15°C° 0.6 mm 1 m/s 682 mm Hg 96%
01:00 +14°C° 0.6 mm 1 m/s 681 mm Hg 96%
02:00 +14°C° 0.1 mm 1 m/s 681 mm Hg 96%
03:00 +14°C° 0.1 mm 1 m/s 681 mm Hg 96%
04:00 +14°C° 0.1 mm 1 m/s 681 mm Hg 96%
05:00 +15°C° 0.6 mm 1 m/s 681 mm Hg 94%
06:00 +16°C° 0.6 mm 1 m/s 681 mm Hg 92%
07:00 +16°C° 0.6 mm 1 m/s 681 mm Hg 90%
08:00 +18°C° 0.2 mm 1 m/s 682 mm Hg 86%
09:00 +19°C° 0.2 mm 2 m/s 682 mm Hg 81%
10:00 +20°C° 0.2 mm 2 m/s 682 mm Hg 76%
11:00 +21°C° 0 mm 2 m/s 682 mm Hg 73%
12:00 +21°C° 0 mm 2 m/s 682 mm Hg 69%
13:00 +23°C° 0 mm 1 m/s 682 mm Hg 65%
14:00 +24°C° 0.1 mm 2 m/s 682 mm Hg 64%
15:00 +24°C° 0.1 mm 3 m/s 682 mm Hg 63%
16:00 +24°C° 0.1 mm 3 m/s 683 mm Hg 62%
17:00 +22°C° 0.5 mm 3 m/s 682 mm Hg 71%
18:00 +20°C° 0.5 mm 2 m/s 682 mm Hg 79%
19:00 +20°C° 0.5 mm 1 m/s 682 mm Hg 87%
20:00 +19°C° 0.1 mm 1 m/s 682 mm Hg 90%
21:00 +18°C° 0.1 mm 1 m/s 682 mm Hg 92%
22:00 +15°C° 0.1 mm 1 m/s 682 mm Hg 94%
23:00 +15°C° 0 mm 1 m/s 682 mm Hg 94%

22 Giugno, Martedi

Tempo Temperatura Precipitazioni Vento Pressione Umidità
00:00 +15°C° 0 mm 1 m/s 683 mm Hg 94%
01:00 +15°C° 0 mm 1 m/s 683 mm Hg 94%
02:00 +15°C° 0.1 mm 1 m/s 683 mm Hg 94%
03:00 +14°C° 0.1 mm 0 m/s 683 mm Hg 93%
04:00 +14°C° 0.1 mm 0 m/s 683 mm Hg 93%
05:00 +16°C° 0 mm 1 m/s 684 mm Hg 91%
06:00 +18°C° 0 mm 1 m/s 684 mm Hg 89%
07:00 +19°C° 0 mm 1 m/s 684 mm Hg 87%
08:00 +20°C° 0.1 mm 1 m/s 685 mm Hg 80%
09:00 +20°C° 0.1 mm 2 m/s 685 mm Hg 72%
10:00 +23°C° 0.1 mm 2 m/s 685 mm Hg 65%
11:00 +23°C° 0.4 mm 2 m/s 686 mm Hg 66%
12:00 +23°C° 0.4 mm 2 m/s 686 mm Hg 66%
13:00 +23°C° 0.4 mm 2 m/s 686 mm Hg 67%
14:00 +22°C° 0.5 mm 3 m/s 686 mm Hg 67%
15:00 +24°C° 0.5 mm 3 m/s 686 mm Hg 66%
16:00 +24°C° 0.5 mm 3 m/s 686 mm Hg 66%
17:00 +22°C° 0.5 mm 3 m/s 686 mm Hg 71%
18:00 +21°C° 0.5 mm 3 m/s 685 mm Hg 77%
19:00 +20°C° 0.5 mm 2 m/s 685 mm Hg 82%
20:00 +19°C° 0.3 mm 2 m/s 685 mm Hg 85%
21:00 +18°C° 0.3 mm 2 m/s 684 mm Hg 89%
22:00 +16°C° 0.3 mm 2 m/s 684 mm Hg 92%
23:00 +16°C° 2.5 mm 2 m/s 684 mm Hg 94%

23 Giugno, Mercoledi

Tempo Temperatura Precipitazioni Vento Pressione Umidità
00:00 +16°C° 2.5 mm 3 m/s 684 mm Hg 95%
01:00 +14°C° 2.5 mm 3 m/s 684 mm Hg 97%
02:00 +14°C° 11.2 mm 3 m/s 684 mm Hg 97%
03:00 +15°C° 11.2 mm 2 m/s 684 mm Hg 97%
04:00 +14°C° 11.2 mm 2 m/s 684 mm Hg 96%
05:00 +15°C° 0.1 mm 2 m/s 684 mm Hg 95%
06:00 +15°C° 0.1 mm 2 m/s 685 mm Hg 94%
07:00 +15°C° 0.1 mm 1 m/s 685 mm Hg 92%
08:00 +16°C° 0 mm 2 m/s 686 mm Hg 89%
09:00 +16°C° 0 mm 2 m/s 686 mm Hg 86%
10:00 +17°C° 0 mm 2 m/s 686 mm Hg 82%
11:00 +18°C° 0 mm 2 m/s 686 mm Hg 77%
12:00 +19°C° 0 mm 2 m/s 687 mm Hg 72%
13:00 +20°C° 0 mm 3 m/s 687 mm Hg 67%
14:00 +20°C° 0 mm 3 m/s 687 mm Hg 67%
15:00 +20°C° 0 mm 3 m/s 687 mm Hg 67%
16:00 +20°C° 0 mm 3 m/s 687 mm Hg 66%
17:00 +18°C° 0.4 mm 3 m/s 686 mm Hg 76%
18:00 +16°C° 0.4 mm 2 m/s 686 mm Hg 85%
19:00 +14°C° 0.4 mm 2 m/s 686 mm Hg 95%
20:00 +14°C° 0.4 mm 2 m/s 686 mm Hg 95%
21:00 +13°C° 0.4 mm 1 m/s 686 mm Hg 96%
22:00 +13°C° 0.4 mm 1 m/s 687 mm Hg 96%
23:00 +12°C° 0.1 mm 1 m/s 687 mm Hg 97%

24 Giugno, Giovedi

Tempo Temperatura Precipitazioni Vento Pressione Umidità
00:00 +12°C° 0.1 mm 1 m/s 687 mm Hg 97%
01:00 +12°C° 0.1 mm 1 m/s 687 mm Hg 97%
02:00 +12°C° 0 mm 1 m/s 687 mm Hg 97%
03:00 +11°C° 0 mm 1 m/s 687 mm Hg 97%
04:00 +11°C° 0 mm 1 m/s 687 mm Hg 97%
05:00 +12°C° 0 mm 1 m/s 687 mm Hg 94%
06:00 +13°C° 0 mm 1 m/s 687 mm Hg 91%
07:00 +14°C° 0 mm 1 m/s 688 mm Hg 89%
08:00 +16°C° 0 mm 1 m/s 688 mm Hg 80%
09:00 +18°C° 0 mm 2 m/s 688 mm Hg 71%
10:00 +20°C° 0 mm 2 m/s 688 mm Hg 62%
11:00 +20°C° 0 mm 2 m/s 689 mm Hg 61%
12:00 +20°C° 0 mm 2 m/s 689 mm Hg 60%
13:00 +21°C° 0 mm 2 m/s 689 mm Hg 59%
14:00 +21°C° 0.1 mm 2 m/s 689 mm Hg 61%
15:00 +22°C° 0.1 mm 1 m/s 688 mm Hg 62%
16:00 +22°C° 0.1 mm 1 m/s 688 mm Hg 63%
17:00 +21°C° 0.1 mm 1 m/s 688 mm Hg 68%
18:00 +20°C° 0.1 mm 1 m/s 688 mm Hg 74%
19:00 +20°C° 0.1 mm 1 m/s 687 mm Hg 79%
20:00 +18°C° 0.6 mm 1 m/s 687 mm Hg 84%
21:00 +16°C° 0.6 mm 1 m/s 687 mm Hg 89%
22:00 +14°C° 0.6 mm 1 m/s 687 mm Hg 93%
23:00 +14°C° 1.7 mm 1 m/s 687 mm Hg 94%
Mostrare altro

Abbiamo bisogno del tuo consenso

Meteoprog e i nostri fornitori di servizi possono memorizzare e accedere a dati personali come cookie, identificatori di dispositivi o altre tecnologie simili sul tuo dispositivo e possono elaborare tali dati per personalizzare i contenuti e gli annunci, nonché fornire funzionalità dei social media e analizzarne il traffico.

  • Archiviare e/o accedere alle informazioni sul tuo dispositivo

    Cookie, identificatori di dispositivi o altre informazioni possono essere memorizzati o resi accessibili sul tuo dispositivo per le finalità sopra indicate.

  • Annunci e contenuti personalizzati, misurazione di annunci e contenuti, approfondimenti sul pubblico e sviluppo di prodotti

    Gli annunci e i contenuti possono essere personalizzati in base a un profilo. È possibile aggiungere più dati per personalizzare meglio annunci e contenuti. È possibile misurare il rendimento degli annunci e dei contenuti. È possibile ricavare informazioni sul pubblico che ha visto gli annunci e i contenuti. Tali dati possono essere utilizzati per sviluppare o migliorare l'esperienza, i sistemi e il software dell'utente.

Cliccando su “Accetto”, acconsenti all'uso di cookie, identificatori di dispositivo, web beacon o altre tecnologie simili. Puoi modificare le impostazioni nel browser del tuo dispositivo.

Per determinati scopi, è possibile fare affidamento su interessi legali, piuttosto che sul consenso. Puoi approfondire questo argomento consultando la nostra Informativa sulla privacy e sui cookie.